Weather History for Lufkin, TX

Change the Weather History Date:

Friday, January 10, 2014

  Actual Average Record
Temperature  
Mean Temperature 64 °F 49 °F  
Max Temperature 70 °F 59 °F 79 °F (1963)
Min Temperature 58 °F 38 °F 11 °F (1962)
Degree Days  
Heating Degree Days 1 17  
Month to date heating degree days 196 170  
Since 1 July heating degree days 1067 948  
Cooling Degree Days 0 0  
Month to date cooling degree days 0 0  
Year to date cooling degree days 0 0  
Growing Degree Days 14 (Base 50)    
Moisture  
Dew Point 60 °F    
Average Humidity 82    
Maximum Humidity 93    
Minimum Humidity 70    
Precipitation  
Precipitation 0.05 in 0.12 in 1.27 in (1991)
Month to date precipitation 0.50 1.30  
Year to date precipitation 0.50 1.30  
Snow  
Snow 0.00 in - - ()
Month to date snowfall 0.0  
Since 1 July snowfall T  
Snow Depth 0.00 in    
Sea Level Pressure  
Sea Level Pressure 29.88 in    
Wind  
Wind Speed 10 mph (South)    
Max Wind Speed 13 mph    
Max Gust Speed 16 mph    
Visibility 8 miles    
Events Rain    
T = Trace of Precipitation, MM = Missing Value Source: NWS Daily Summary

Daily Weather History Graph

Daily Weather History Graph

Search for Another Location

Airport:

Trip Planner

Search our weather history database for the weather conditions in past years. The results will help you decide how hot, cold, wet, or windy it might be!

Date:

Astronomy

Jan. 10, 2014 Rise Set
Actual Time 7:18 AM CST 5:34 PM CST
Civil Twilight 6:52 AM CST 6:01 PM CST
Nautical Twilight 6:22 AM CST 6:31 PM CST
Astronomical Twilight 5:53 AM CST 7:00 PM CST
Moon 1:34 PM CST (1/10) 2:33 AM CST (1/10)
Length of Visible Light 11h 08m
Length of Day
10h 16m
Waxing Gibbous, 75% of the Moon is Illuminated
Jan 10
Waxing Gibbous
Jan 15
Full
Jan 23
Last Quarter
Jan 30
New
Feb 6
First Quarter

Hourly Weather History & Observations

Time (CST) Temp. Dew Point Humidity Pressure Visibility Wind Dir Wind Speed Gust Speed Precip Events Conditions
12:53 AM 59.0 °F 55.9 °F 90% 30.07 in 7.0 mi SSE 9.2 mph - N/A   Overcast
1:53 AM 59.0 °F 55.9 °F 90% 30.06 in 8.0 mi SSE 11.5 mph - N/A   Overcast
2:53 AM 57.9 °F 55.0 °F 90% 30.03 in 9.0 mi SE 13.8 mph - N/A   Overcast
3:53 AM 57.9 °F 55.0 °F 90% 30.01 in 10.0 mi SE 10.4 mph - N/A   Overcast
4:53 AM 57.9 °F 55.9 °F 93% 30.00 in 10.0 mi SSE 10.4 mph - N/A   Overcast
5:53 AM 57.9 °F 55.9 °F 93% 29.99 in 7.0 mi SE 12.7 mph - N/A   Overcast
6:53 AM 57.9 °F 55.0 °F 90% 29.99 in 8.0 mi SSE 11.5 mph - N/A   Overcast
7:53 AM 59.0 °F 55.9 °F 90% 29.99 in 3.0 mi SSE 11.5 mph 20.7 mph N/A   Overcast
8:04 AM 59.0 °F 55.4 °F 88% 30.00 in 2.0 mi SSE 11.5 mph - N/A   Overcast
8:35 AM 59.0 °F 55.4 °F 88% 30.01 in 3.0 mi SSE 8.1 mph - N/A   Overcast
8:53 AM 59.0 °F 55.9 °F 90% 30.00 in 6.0 mi SSE 10.4 mph - N/A   Overcast
9:53 AM 61.0 °F 57.9 °F 90% 29.99 in 10.0 mi SSE 11.5 mph - N/A   Overcast
10:15 AM 62.6 °F 59.0 °F 88% 29.98 in 10.0 mi South 9.2 mph - N/A   Overcast
10:53 AM 64.9 °F 59.0 °F 81% 29.96 in 10.0 mi South 10.4 mph 17.3 mph N/A   Overcast
11:28 AM 68.0 °F 59.0 °F 73% 29.94 in 10.0 mi South 12.7 mph 24.2 mph N/A   Partly Cloudy
11:53 AM 70.0 °F 59.0 °F 68% 29.91 in 10.0 mi South 15.0 mph 23.0 mph N/A   Partly Cloudy
12:53 PM 68.0 °F 59.0 °F 73% 29.86 in 10.0 mi South 12.7 mph - N/A   Overcast
1:53 PM 69.1 °F 59.0 °F 70% 29.82 in 10.0 mi South 8.1 mph 19.6 mph N/A   Overcast
2:00 PM 69.8 °F 59.0 °F 68% 29.82 in 10.0 mi SSE 12.7 mph 17.3 mph N/A   Overcast
2:53 PM 68.0 °F 60.1 °F 76% 29.79 in 10.0 mi South 10.4 mph 19.6 mph N/A   Overcast
3:53 PM 66.9 °F 61.0 °F 81% 29.78 in 10.0 mi South 10.4 mph - N/A   Overcast
4:53 PM 66.9 °F 62.1 °F 84% 29.77 in 10.0 mi SSE 12.7 mph 17.3 mph 0.00 in   Overcast
5:18 PM 66.2 °F 62.6 °F 88% 29.78 in 1.8 mi SW 9.2 mph - 0.02 in Rain Rain
5:27 PM 66.2 °F 62.6 °F 88% 29.78 in 2.0 mi SSW 12.7 mph 19.6 mph 0.04 in Rain Light Rain
5:30 PM 66.2 °F 62.6 °F 88% 29.78 in 3.0 mi South 10.4 mph 19.6 mph 0.04 in Rain Light Rain
5:45 PM 66.2 °F 62.6 °F 88% 29.77 in 7.0 mi South 9.2 mph - 0.05 in Rain Light Rain
5:53 PM 66.0 °F 63.0 °F 90% 29.77 in 10.0 mi SSW 8.1 mph - 0.05 in Rain Light Rain
6:41 PM 66.2 °F 62.6 °F 88% 29.78 in 5.0 mi South 6.9 mph - N/A Rain Light Rain
6:53 PM 66.0 °F 63.0 °F 90% 29.78 in 9.0 mi South 8.1 mph - N/A Rain Light Rain
7:38 PM 66.2 °F 62.6 °F 88% 29.78 in 10.0 mi South 11.5 mph - 0.00 in   Overcast
7:53 PM 66.0 °F 63.0 °F 90% 29.79 in 10.0 mi SSW 8.1 mph - 0.00 in   Overcast
7:55 PM 66.2 °F 62.6 °F 88% 29.80 in 10.0 mi SSW 8.1 mph - N/A   Overcast
8:53 PM 66.0 °F 63.0 °F 90% 29.79 in 10.0 mi SSW 9.2 mph - 0.00 in   Mostly Cloudy
9:12 PM 66.2 °F 62.6 °F 88% 29.80 in 10.0 mi SW 9.2 mph - N/A   Scattered Clouds
9:30 PM 66.2 °F 62.6 °F 88% 29.82 in 9.0 mi WSW 8.1 mph - N/A   Mostly Cloudy
9:53 PM 66.0 °F 63.0 °F 90% 29.81 in 10.0 mi SW 5.8 mph - N/A   Overcast
10:28 PM 66.2 °F 62.6 °F 88% 29.82 in 9.0 mi SW 6.9 mph - N/A   Mostly Cloudy
10:50 PM 64.4 °F 62.6 °F 94% 29.83 in 8.0 mi SSW 6.9 mph - N/A   Scattered Clouds
10:53 PM 64.9 °F 63.0 °F 93% 29.82 in 8.0 mi SW 5.8 mph - N/A   Partly Cloudy
11:53 PM 64.0 °F 62.1 °F 93% 29.82 in 8.0 mi SW 5.8 mph - N/A   Clear